Weather History for Maple Lake, MN

Change the Weather History Date:

Monday, July 8, 2013

  Actual Average (KSTC) Record (KSTC)
Temperature  
Mean Temperature 74 °F 70 °F  
Max Temperature 85 °F 82 °F 101 °F (1936)
Min Temperature 64 °F 59 °F 42 °F (1958)
Degree Days  
Heating Degree Days 0 1  
Month to date heating degree days 8  
Since 1 June heating degree days 86  
Since 1 July heating degree days 8  
Cooling Degree Days 10 6  
Month to date cooling degree days 47  
Year to date cooling degree days 167  
Since 1 June cooling degree days 142  
Growing Degree Days 24 (Base 50)    
Moisture  
Dew Point 68 °F    
Average Humidity 84    
Maximum Humidity 99    
Minimum Humidity 54    
Precipitation  
Precipitation 0.00 in 0.11 in 1.77 in (1925)
Month to date precipitation 0.92  
Year to date precipitation 13.40  
Snow  
Snow 0.00 in 0.00 in 0.00 in ()
Month to date snowfall 0.0  
Since 1 June snowfall 0.0  
Since 1 July snowfall 0.0  
Snow Depth -    
Sea Level Pressure  
Sea Level Pressure 29.98 in    
Wind  
Wind Speed 2 mph (NE)    
Max Wind Speed 6 mph    
Max Gust Speed -    
Visibility 7 miles    
Events Fog    
T = Trace of Precipitation, MM = Missing Value Source: NWS Daily Summary

Daily Weather History Graph

Daily Weather History Graph

Search for Another Location

Airport:

Trip Planner

Search our weather history database for the weather conditions in past years. The results will help you decide how hot, cold, wet, or windy it might be!

Date:

Astronomy

Jul. 08, 2013 Rise Set
Actual Time 5:37 AM CDT 9:04 PM CDT
Civil Twilight 5:00 AM CDT 9:41 PM CDT
Nautical Twilight 4:11 AM CDT 10:29 PM CDT
Astronomical Twilight 3:09 AM CDT 11:32 PM CDT
Moon 6:11 AM CDT (7/8) 9:01 PM CDT (7/8)
Length of Visible Light 16h 41m
Length of Day
15h 27m
New Moon, 0% of the Moon is Illuminated
Jul 8
New Moon
Jul 15
First Quarter
Jul 22
Full
Jul 29
Last Quarter
Aug 6
New

Hourly Weather History & Observations

Time (CDT) Temp. Heat Index Dew Point Humidity Pressure Visibility Wind Dir Wind Speed Gust Speed Precip Events Conditions
12:17 AM 68.9 °F - 67.6 °F 96% 29.93 in 10.0 mi NNW 3.5 mph - N/A   Clear
12:36 AM 69.8 °F - 68.7 °F 96% 29.93 in 10.0 mi North 3.5 mph - N/A   Clear
12:56 AM 70.2 °F - 68.5 °F 95% 29.93 in 10.0 mi NNW 3.5 mph - N/A   Clear
1:17 AM 69.8 °F - 68.4 °F 95% 29.94 in 10.0 mi Calm Calm - N/A   Clear
1:36 AM 70.0 °F - 68.5 °F 95% 29.94 in 10.0 mi Calm Calm - N/A   Mostly Cloudy
1:56 AM 69.1 °F - 68.0 °F 96% 29.95 in 7.0 mi Calm Calm - N/A   Scattered Clouds
2:17 AM 68.5 °F - 67.8 °F 98% 29.95 in 7.0 mi Calm Calm - N/A   Scattered Clouds
2:36 AM 66.7 °F - 65.8 °F 97% 29.95 in 5.0 mi Calm Calm - N/A   Clear
2:56 AM 67.6 °F - 67.1 °F 98% 29.94 in 7.0 mi Calm Calm - N/A   Clear
3:17 AM 67.6 °F - 67.1 °F 98% 29.94 in 7.0 mi Calm Calm - N/A   Clear
3:36 AM 68.0 °F - 67.3 °F 98% 29.94 in 5.0 mi Calm Calm - N/A   Mostly Cloudy
3:56 AM 68.5 °F - 68.0 °F 98% 29.94 in 1.5 mi Calm Calm - N/A   Overcast
4:17 AM 68.5 °F - 68.2 °F 99% 29.94 in 0.5 mi North 4.6 mph - N/A Fog Fog
4:36 AM 68.4 °F - 68.0 °F 99% 29.94 in 0.5 mi NNW 4.6 mph - N/A Fog Fog
4:56 AM 67.3 °F - 66.9 °F 99% 29.94 in 0.8 mi North 4.6 mph - N/A   Overcast
5:17 AM 65.5 °F - 65.3 °F 99% 29.95 in 7.0 mi North 3.5 mph - N/A   Overcast
5:36 AM 65.3 °F - 64.9 °F 99% 29.95 in 7.0 mi NNE 3.5 mph - N/A   Overcast
5:56 AM 64.4 °F - 64.0 °F 99% 29.96 in 7.0 mi North 5.8 mph - N/A   Mostly Cloudy
6:17 AM 64.4 °F - 63.7 °F 98% 29.97 in 3.0 mi North 5.8 mph - N/A   Overcast
6:37 AM 64.4 °F - 63.9 °F 98% 29.97 in 1.5 mi NE 4.6 mph - N/A   Overcast
6:56 AM 64.0 °F - 63.7 °F 99% 29.98 in 0.5 mi NE 4.6 mph - N/A Fog Fog
7:16 AM 64.0 °F - 63.7 °F 99% 29.98 in 0.5 mi NE 4.6 mph - N/A Fog Fog
7:36 AM 64.4 °F - 64.0 °F 99% 29.98 in 0.5 mi NE 5.8 mph - N/A Fog Fog
7:57 AM 64.4 °F - 63.9 °F 98% 29.99 in 0.8 mi Calm Calm - N/A   Overcast
8:16 AM 64.6 °F - 64.4 °F 99% 30.00 in 0.2 mi NE 5.8 mph - N/A Fog Fog
8:36 AM 64.8 °F - 64.6 °F 99% 30.01 in 0.2 mi NNE 5.8 mph - N/A Fog Fog
8:56 AM 64.6 °F - 64.4 °F 99% 30.02 in 1.0 mi NNE 4.6 mph - N/A   Overcast
9:17 AM 65.1 °F - 64.9 °F 99% 30.02 in 5.0 mi NNE 5.8 mph - N/A   Overcast
9:37 AM 65.8 °F - 65.5 °F 99% 30.03 in 5.0 mi NNE 3.5 mph - N/A   Overcast
9:56 AM 66.4 °F - 65.7 °F 98% 30.03 in 3.0 mi Calm Calm - N/A   Overcast
10:17 AM 67.3 °F - 66.2 °F 96% 30.03 in 3.0 mi NE 3.5 mph - N/A   Overcast
10:36 AM 68.2 °F - 66.4 °F 94% 30.04 in 4.0 mi Calm Calm - N/A   Overcast
10:56 AM 70.3 °F - 67.1 °F 89% 30.04 in 5.0 mi Calm Calm - N/A   Overcast
11:17 AM 71.2 °F - 67.5 °F 88% 30.04 in 7.0 mi Calm Calm - N/A   Overcast
11:37 AM 73.4 °F - 68.2 °F 84% 30.03 in 10.0 mi ENE 4.6 mph - N/A   Mostly Cloudy
11:56 AM 73.9 °F - 68.0 °F 82% 30.02 in 10.0 mi NE 4.6 mph - N/A   Clear
12:16 PM 75.2 °F - 68.5 °F 80% 30.02 in 10.0 mi Calm Calm - N/A   Clear
12:37 PM 76.6 °F - 70.0 °F 80% 30.02 in 10.0 mi Calm Calm - N/A   Clear
12:56 PM 77.5 °F - 70.2 °F 78% 30.01 in 10.0 mi Calm Calm - N/A   Clear
1:17 PM 78.6 °F - 70.5 °F 76% 30.01 in 10.0 mi Calm Calm - N/A   Clear
1:36 PM 79.5 °F - 71.1 °F 75% 30.01 in 10.0 mi Calm Calm - N/A   Clear
1:56 PM 81.1 °F 85.4 °F 71.8 °F 73% 30.01 in 10.0 mi NNW 3.5 mph - N/A   Clear
2:16 PM 81.0 °F 84.6 °F 70.3 °F 70% 30.01 in 10.0 mi Calm Calm - N/A   Clear
2:36 PM 81.5 °F 85.3 °F 70.3 °F 69% 30.00 in 10.0 mi Calm Calm - N/A   Clear
2:56 PM 81.5 °F 85.5 °F 70.9 °F 70% 30.00 in 10.0 mi Calm Calm - N/A   Scattered Clouds
3:17 PM 83.7 °F 86.7 °F 68.2 °F 59% 30.00 in 10.0 mi Calm Calm - N/A   Clear
3:36 PM 83.3 °F 86.4 °F 68.2 °F 60% 30.00 in 10.0 mi Calm Calm - N/A   Clear
3:57 PM 82.4 °F 85.4 °F 68.4 °F 62% 29.99 in 10.0 mi North 3.5 mph - N/A   Clear
4:16 PM 84.6 °F 88.2 °F 68.9 °F 59% 29.99 in 10.0 mi Calm Calm - N/A   Clear
4:37 PM 84.4 °F 88.2 °F 69.1 °F 60% 29.99 in 10.0 mi Calm Calm - N/A   Clear
4:56 PM 84.2 °F 88.1 °F 69.3 °F 61% 29.99 in 10.0 mi North 3.5 mph - N/A   Clear
5:16 PM 84.6 °F 88.8 °F 69.6 °F 61% 29.98 in 10.0 mi Calm Calm - N/A   Clear
5:36 PM 85.1 °F 87.7 °F 66.7 °F 54% 29.98 in 10.0 mi Calm Calm - N/A   Clear
5:56 PM 84.4 °F 87.3 °F 67.5 °F 57% 29.98 in 10.0 mi Calm Calm - N/A   Clear
6:17 PM 84.4 °F 87.9 °F 68.5 °F 59% 29.98 in 10.0 mi Calm Calm - N/A   Clear
6:36 PM 84.4 °F 87.6 °F 68.0 °F 58% 29.98 in 10.0 mi Calm Calm - N/A   Clear
6:56 PM 84.2 °F 87.1 °F 67.5 °F 57% 29.98 in 10.0 mi Calm Calm - N/A   Clear
7:16 PM 82.9 °F 86.3 °F 68.5 °F 62% 29.97 in 10.0 mi NE 3.5 mph - N/A   Clear
7:36 PM 80.1 °F 82.9 °F 68.9 °F 69% 29.97 in 10.0 mi ENE 4.6 mph - N/A   Clear
7:56 PM 79.7 °F - 68.0 °F 67% 29.97 in 10.0 mi Calm Calm - N/A   Clear
8:16 PM 78.6 °F - 68.9 °F 72% 29.97 in 10.0 mi Calm Calm - N/A   Clear
8:36 PM 77.9 °F - 68.4 °F 72% 29.96 in 10.0 mi ENE 3.5 mph - N/A   Clear
8:56 PM 77.2 °F - 68.9 °F 76% 29.96 in 10.0 mi ENE 3.5 mph - N/A   Clear
9:16 PM 75.7 °F - 69.4 °F 81% 29.96 in 10.0 mi ENE 4.6 mph - N/A   Clear
9:37 PM 75.2 °F - 70.2 °F 84% 29.97 in 10.0 mi East 4.6 mph - N/A   Clear
9:56 PM 75.6 °F - 71.1 °F 86% 29.97 in 10.0 mi East 4.6 mph - N/A   Clear
10:17 PM 75.2 °F - 71.1 °F 87% 29.97 in 10.0 mi East 4.6 mph - N/A   Clear
10:36 PM 74.5 °F - 70.9 °F 88% 29.98 in 10.0 mi East 5.8 mph - N/A   Clear
10:56 PM 74.3 °F - 70.7 °F 88% 29.99 in 10.0 mi East 3.5 mph - N/A   Clear
11:16 PM 73.9 °F - 70.7 °F 90% 29.98 in 10.0 mi East 5.8 mph - N/A   Clear
11:37 PM 73.6 °F - 70.0 °F 88% 29.98 in 10.0 mi East 5.8 mph - N/A   Clear
11:56 PM 73.4 °F - 69.8 °F 88% 29.99 in 10.0 mi East 4.6 mph - N/A   Clear